Weather History for Molokai, HI

Change the Weather History Date:

Friday, November 2, 2012

  Actual Average Record
Temperature  
Mean Temperature 72 °F -  
Max Temperature 82 °F 81 °F 87 °F (1990)
Min Temperature 62 °F 69 °F 62 °F (2012)
Cooling Degree Days 7    
Growing Degree Days 22 (Base 50)    
Moisture  
Dew Point 60 °F    
Average Humidity 63    
Maximum Humidity 84    
Minimum Humidity 42    
Precipitation  
Precipitation 0.00 in - - ()
Sea Level Pressure  
Sea Level Pressure 29.97 in    
Wind  
Wind Speed 4 mph (East)    
Max Wind Speed 12 mph    
Max Gust Speed -    
Visibility 10 miles    
Events      
Averages and records for this station are not official NWS values.
T = Trace of Precipitation, MM = Missing Value Source: NWS Daily Summary

Daily Weather History Graph

Daily Weather History Graph

Search for Another Location

Airport:

Trip Planner

Search our weather history database for the weather conditions in past years. The results will help you decide how hot, cold, wet, or windy it might be!

Date:

Astronomy

Nov. 02, 2012 Rise Set
Actual Time 6:32 AM HST 5:51 PM HST
Civil Twilight 6:09 AM HST 6:14 PM HST
Nautical Twilight 5:42 AM HST 6:40 PM HST
Astronomical Twilight 5:16 AM HST 7:07 PM HST
Moon 9:02 PM HST (11/2) 9:46 AM HST (11/2)
Length of Visible Light 12h 05m
Length of Day
11h 19m
Waning Gibbous, 86% of the Moon is Illuminated
Nov 2
Waning Gibbous
Nov 6
Last Quarter
Nov 13
New
Nov 20
First Quarter
Nov 28
Full

Hourly Weather History & Observations

Time (HST) Temp. Heat Index Dew Point Humidity Pressure Visibility Wind Dir Wind Speed Gust Speed Precip Events Conditions
12:54 AM 64.0 °F - 55.0 °F 73% 30.01 in 10.0 mi Calm Calm - N/A   Clear
1:54 AM 62.1 °F - 55.0 °F 78% 30.01 in 10.0 mi ENE 3.5 mph - N/A   Clear
2:54 AM 66.0 °F - 59.0 °F 78% 29.99 in 10.0 mi Calm Calm - N/A   Clear
3:54 AM 63.0 °F - 57.0 °F 81% 29.99 in 10.0 mi ENE 3.5 mph - N/A   Clear
4:54 AM 64.0 °F - 59.0 °F 84% 29.99 in 10.0 mi Calm Calm - N/A   Clear
5:54 AM 68.0 °F - 61.0 °F 78% 29.99 in 10.0 mi NNE 5.8 mph - N/A   Clear
6:54 AM 69.1 °F - 60.1 °F 73% 30.00 in 10.0 mi NNE 4.6 mph - N/A   Clear
7:54 AM 75.9 °F - 60.1 °F 58% 30.00 in 10.0 mi NE 4.6 mph - N/A   Clear
8:54 AM 79.0 °F - 57.9 °F 48% 30.01 in 10.0 mi Variable 5.8 mph - N/A   Clear
9:54 AM 81.0 °F 81.0 °F 57.0 °F 44% 30.01 in 10.0 mi North 5.8 mph - N/A   Clear
10:54 AM 78.1 °F - 59.0 °F 52% 29.99 in 10.0 mi NNE 5.8 mph - N/A   Partly Cloudy
11:54 AM 81.0 °F 81.1 °F 57.9 °F 45% 29.96 in 10.0 mi North 8.1 mph - N/A   Scattered Clouds
12:54 PM 82.0 °F 81.7 °F 57.0 °F 42% 29.94 in 10.0 mi NNE 6.9 mph - N/A   Scattered Clouds
1:54 PM 82.0 °F 82.4 °F 60.1 °F 47% 29.91 in 10.0 mi South 6.9 mph - N/A   Scattered Clouds
2:54 PM 81.0 °F 81.6 °F 60.1 °F 49% 29.90 in 10.0 mi SSE 11.5 mph - N/A   Partly Cloudy
3:54 PM 80.1 °F 81.1 °F 61.0 °F 52% 29.90 in 10.0 mi SE 11.5 mph - N/A   Partly Cloudy
4:54 PM 79.0 °F - 61.0 °F 54% 29.91 in 10.0 mi South 8.1 mph - N/A   Clear
5:54 PM 77.0 °F - 62.1 °F 60% 29.93 in 10.0 mi South 5.8 mph - N/A   Clear
6:54 PM 75.0 °F - 62.1 °F 64% 29.96 in 10.0 mi South 4.6 mph - N/A   Clear
7:54 PM 75.0 °F - 63.0 °F 66% 29.98 in 10.0 mi South 4.6 mph - N/A   Scattered Clouds
8:54 PM 75.9 °F - 64.0 °F 67% 30.00 in 10.0 mi South 5.8 mph - N/A   Mostly Cloudy
9:54 PM 75.0 °F - 64.0 °F 69% 30.01 in 10.0 mi SSE 6.9 mph - N/A   Mostly Cloudy
10:54 PM 73.9 °F - 64.0 °F 71% 30.00 in 10.0 mi Calm Calm - N/A   Scattered Clouds
11:54 PM 71.1 °F - 63.0 °F 75% 29.99 in 10.0 mi ENE 5.8 mph - N/A   Clear